Date String (YYYY-MM-DD hh:mm:ss) UTC,Instrument flags,absolute air pressure of the measurement (hPa),sample flow rate (lpm),inlet stack bypass flow (lpm),air temperature of the measurement (°C),ambient temperature measured by the external sensor (°C),aerosol sample conditioner tube jacket temperature (°C),OPC LED temperature (°C),internal box temperature (°C),relative humidity of the measurement (%),span deviation,mass concentration of particles derived from Lorenz-Mie calculation of OPC scattering (μg/m³),mass concentration of particles derived from Lorenz-Mie calculation of OPC scattering (μg/m³),mass concentration of particles derived from Lorenz-Mie calculation of OPC scattering (μg/m³)
DateTimeUTC,F1_M11,P_M11,Q1_M11,Q2_M11,T1_M11,T2_M11,T3_M11,T4_M11,T5_M11,U1_M11,ZSPAN_M11,X2_M11,X0_M11,X1_M11
2024-03-24 07:00:00,SystemResetWarning,0812.4,5.00,000.00,023.9,023.1,000.0,032.6,025.9,19.5,0000.0,0006.73,0017.44,0005.27
2024-03-24 07:01:00,SystemResetWarning,0812.4,5.00,000.00,023.9,023.1,000.0,032.6,025.9,19.6,0000.0,0006.87,0019.69,0005.36
2024-03-24 07:02:00,SystemResetWarning,0812.4,5.01,000.00,023.9,023.1,000.0,032.6,025.8,19.6,0000.0,0006.97,0020.53,0005.40
2024-03-24 07:03:00,SystemResetWarning,0812.4,5.01,000.00,023.9,023.0,000.0,032.6,025.8,19.6,0000.0,0006.99,0020.57,0005.45
2024-03-24 07:04:00,SystemResetWarning,0812.4,4.99,000.00,023.9,023.0,000.0,032.6,025.7,19.6,0000.0,0007.03,0019.66,0005.48
2024-03-24 07:05:00,SystemResetWarning,0812.4,4.99,000.00,023.9,023.0,000.0,032.6,025.7,19.5,0000.0,0006.96,0018.69,0005.47
2024-03-24 07:06:00,SystemResetWarning,0812.4,5.00,000.00,023.9,023.0,000.0,032.6,025.7,19.2,0000.0,0007.01,0018.75,0005.50
2024-03-24 07:07:00,SystemResetWarning,0812.4,5.01,000.00,023.9,022.9,000.0,032.6,025.7,19.0,0000.0,0006.90,0018.49,0005.46
2024-03-24 07:08:00,SystemResetWarning,0812.4,5.01,000.00,023.9,022.9,000.0,032.6,025.7,18.9,0000.0,0006.80,0019.09,0005.40
2024-03-24 07:09:00,SystemResetWarning,0812.4,5.00,000.00,023.9,022.9,000.0,032.6,025.7,18.7,0000.0,0006.75,0018.97,0005.36
2024-03-24 07:10:00,SystemResetWarning,0812.4,5.00,000.00,023.9,022.9,000.0,032.5,025.7,18.7,0000.0,0006.65,0018.98,0005.31
2024-03-24 07:11:00,SystemResetWarning,0812.4,5.00,000.00,023.8,022.9,000.0,032.5,025.7,18.6,0003.3,0006.56,0018.99,0005.27
2024-03-24 07:12:00,SystemResetWarning,0812.4,5.00,000.00,023.8,022.9,000.0,032.5,025.7,18.6,0001.8,0006.43,0016.49,0005.21
2024-03-24 07:13:00,SystemResetWarning,0812.4,4.99,000.00,023.8,022.9,000.0,032.5,025.7,18.4,0002.2,0006.35,0014.98,0005.16
2024-03-24 07:14:00,SystemResetWarning,0812.4,4.99,000.00,023.8,022.9,000.0,032.5,025.6,18.1,0001.8,0006.27,0014.22,0005.09
2024-03-24 07:15:00,SystemResetWarning,0812.4,5.00,000.00,023.8,022.9,000.0,032.5,025.6,18.0,0002.1,0006.18,0013.98,0005.01
2024-03-24 07:16:00,SystemResetWarning,0812.4,5.00,000.00,023.8,022.9,000.0,032.5,025.6,17.8,0001.5,0006.09,0014.19,0004.93
2024-03-24 07:17:00,SystemResetWarning,0812.4,4.99,000.00,023.8,022.9,000.0,032.5,025.6,17.8,0001.5,0006.01,0015.11,0004.85
2024-03-24 07:18:00,SystemResetWarning,0812.4,5.00,000.00,023.8,022.9,000.0,032.5,025.6,17.8,0001.7,0005.96,0016.28,0004.78
2024-03-24 07:19:00,SystemResetWarning,0812.4,5.00,000.00,023.8,022.9,000.0,032.5,025.6,17.8,0002.0,0005.92,0015.30,0004.74
2024-03-24 07:20:00,SystemResetWarning,0812.4,5.02,000.00,023.8,022.9,000.0,032.5,025.6,17.8,0001.8,0005.88,0015.18,0004.68
2024-03-24 07:21:00,SystemResetWarning,0812.4,5.01,000.00,023.8,022.9,000.0,032.5,025.6,18.1,0001.4,0005.87,0015.26,0004.64
2024-03-24 07:22:00,SystemResetWarning,0812.4,4.99,000.00,023.8,022.9,000.0,032.5,025.6,18.1,0001.0,0005.88,0015.38,0004.60
2024-03-24 07:23:00,SystemResetWarning,0812.3,5.00,000.00,023.8,022.9,000.0,032.4,025.6,18.1,0001.1,0005.82,0016.28,0004.55
2024-03-24 07:24:00,SystemResetWarning,0812.2,4.99,000.00,023.8,022.9,000.0,032.4,025.6,18.1,0000.3,0005.73,0017.83,0004.48
2024-03-24 07:25:00,SystemResetWarning,0812.3,5.01,000.00,023.7,022.9,000.0,032.4,025.6,18.1,0000.0,0005.74,0017.82,0004.45
2024-03-24 07:26:00,SystemResetWarning,0812.3,5.02,000.00,023.7,022.9,000.0,032.4,025.6,18.1,0000.0,0005.77,0018.14,0004.43
2024-03-24 07:27:00,SystemResetWarning,0812.3,4.99,000.00,023.7,022.9,000.0,032.4,025.6,18.2,0000.0,0005.78,0018.10,0004.43
2024-03-24 07:28:00,SystemResetWarning,0812.2,4.99,000.00,023.7,022.9,000.0,032.4,025.6,18.3,0000.0,0005.77,0017.32,0004.44
2024-03-24 07:29:00,SystemResetWarning,0812.2,5.00,000.00,023.7,022.9,000.0,032.4,025.6,18.5,0000.0,0005.77,0016.59,0004.47
2024-03-24 07:30:00,SystemResetWarning,0812.2,5.02,000.00,023.7,022.9,000.0,032.4,025.6,18.7,0000.4,0005.77,0016.35,0004.50
2024-03-24 07:31:00,SystemResetWarning,0812.1,5.00,000.00,023.7,022.9,000.0,032.4,025.6,18.9,0002.3,0005.79,0016.68,0004.55
2024-03-24 07:32:00,SystemResetWarning,0812.1,4.99,000.00,023.7,022.9,000.0,032.4,025.6,19.3,0002.9,0005.86,0017.89,0004.63
2024-03-24 07:33:00,SystemResetWarning,0812.1,4.99,000.00,023.7,022.9,000.0,032.4,025.6,19.7,0003.5,0005.96,0019.20,0004.74
2024-03-24 07:34:00,SystemResetWarning,0812.1,5.00,000.00,023.7,022.9,000.0,032.4,025.6,19.9,0004.0,0006.12,0019.51,0004.86
2024-03-24 07:35:00,SystemResetWarning,0812.0,4.99,000.00,023.7,022.9,000.0,032.4,025.6,20.3,0003.9,0006.37,0018.32,0005.03
2024-03-24 07:36:00,SystemResetWarning,0812.1,5.00,000.00,023.7,022.9,000.0,032.4,025.6,20.4,0003.9,0006.53,0018.27,0005.18
2024-03-24 07:37:00,SystemResetWarning,0812.0,5.01,000.00,023.7,022.9,000.0,032.4,025.5,20.4,0003.6,0006.71,0018.71,0005.33
2024-03-24 07:38:00,SystemResetWarning,0812.1,5.01,000.00,023.7,022.8,000.0,032.4,025.5,20.3,0003.4,0006.90,0020.69,0005.46
2024-03-24 07:39:00,SystemResetWarning,0812.0,4.99,000.00,023.7,022.8,000.0,032.4,025.5,20.4,0003.6,0007.06,0021.72,0005.58
2024-03-24 07:40:00,SystemResetWarning,0812.0,4.99,000.00,023.7,022.8,000.0,032.4,025.5,20.3,0003.7,0007.22,0021.83,0005.69
2024-03-24 07:41:00,SystemResetWarning,0812.0,5.00,000.00,023.7,022.8,000.0,032.3,025.5,20.4,0003.3,0007.44,0022.38,0005.80
2024-03-24 07:42:00,SystemResetWarning,0812.0,5.01,000.00,023.7,022.8,000.0,032.3,025.5,20.5,0003.4,0007.64,0022.55,0005.89
2024-03-24 07:43:00,SystemResetWarning,0812.0,5.00,000.00,023.6,022.7,000.0,032.3,025.5,20.5,0002.9,0007.70,0021.72,0005.95
2024-03-24 07:44:00,SystemResetWarning,0812.0,5.00,000.00,023.6,022.7,000.0,032.3,025.5,20.6,0002.6,0007.74,0020.45,0005.99
2024-03-24 07:45:00,SystemResetWarning,0812.0,4.99,000.00,023.6,022.7,000.0,032.3,025.5,20.7,0002.7,0007.80,0019.97,0006.02
2024-03-24 07:46:00,SystemResetWarning,0812.0,4.99,000.00,023.6,022.7,000.0,032.3,025.5,20.9,0003.2,0007.85,0020.33,0006.05
2024-03-24 07:47:00,SystemResetWarning,0811.9,5.00,000.00,023.6,022.7,000.0,032.3,025.5,21.0,0003.2,0007.93,0020.93,0006.10
2024-03-24 07:48:00,SystemResetWarning,0811.9,5.00,000.00,023.6,022.7,000.0,032.3,025.5,21.0,0003.6,0007.96,0020.78,0006.16
2024-03-24 07:49:00,SystemResetWarning,0811.8,5.01,000.00,023.6,022.7,000.0,032.3,025.5,21.0,0003.7,0008.02,0019.37,0006.23
2024-03-24 07:50:00,SystemResetWarning,0811.8,5.02,000.00,023.6,022.7,000.0,032.3,025.5,21.0,0003.7,0008.04,0018.55,0006.27
2024-03-24 07:51:00,SystemResetWarning,0811.9,5.00,000.00,023.6,022.6,000.0,032.3,025.5,20.9,0003.7,0008.08,0018.57,0006.31
2024-03-24 07:52:00,SystemResetWarning,0811.9,4.99,000.00,023.6,022.6,000.0,032.3,025.4,20.7,0004.2,0008.06,0017.94,0006.34
2024-03-24 07:53:00,SystemResetWarning,0811.9,4.99,000.00,023.6,022.6,000.0,032.3,025.4,20.8,0003.9,0008.05,0017.19,0006.39
2024-03-24 07:54:00,SystemResetWarning,0811.9,5.02,000.00,023.5,022.6,000.0,032.3,025.4,20.9,0004.0,0008.17,0016.63,0006.46
2024-03-24 07:55:00,SystemResetWarning,0811.8,5.00,000.00,023.5,022.5,000.0,032.3,025.4,21.0,0003.8,0008.25,0016.70,0006.51
2024-03-24 07:56:00,SystemResetWarning,0811.8,4.99,000.00,023.5,022.5,000.0,032.2,025.4,21.1,0003.7,0008.31,0016.78,0006.58
2024-03-24 07:57:00,SystemResetWarning,0811.7,5.00,000.00,023.5,022.5,000.0,032.2,025.4,21.2,0003.6,0008.31,0016.29,0006.64
2024-03-24 07:58:00,SystemResetWarning,0811.7,5.00,000.00,023.5,022.5,000.0,032.2,025.4,21.2,0003.4,0008.32,0016.29,0006.66
2024-03-24 07:59:00,SystemResetWarning,0811.7,4.99,000.00,023.5,022.5,000.0,032.2,025.4,21.2,0003.0,0008.33,0016.53,0006.67
